FW7829 Weather Reports


time (UTC)temp
C
wind
direction
speed
KPH
gust
KPH
rain 1hr
cm
rain 24hr
cm
rain mn
cm
humidity
%
barometer
mb
20260509054413 21 305 0.0 0.0 0.00 0.00 0.00 87 1008.8
20260509053911 21 291 0.0 0.0 0.00 0.00 0.00 87 1008.7
20260509053409 21 291 0.0 0.0 0.00 0.00 0.00 86 1008.7
20260509052906 21 257 0.0 0.0 0.00 0.00 0.00 86 1009.1
20260509052403 21 263 1.6 3.2 0.00 0.00 0.00 86 1008.9
20260509051901 21 307 0.0 0.0 0.00 0.00 0.00 86 1008.8
20260509051359 21 292 0.0 0.0 0.00 0.00 0.00 85 1008.8
20260509050855 21 300 0.0 0.0 0.00 0.00 0.00 85 1009.6
20260509050352 21 2 3.2 3.2 0.00 0.00 0.00 86 1010.2
20260509045849 21 268 3.2 3.2 0.00 1.70 1.70 86 1009.4
20260509045346 21 321 0.0 1.6 0.00 1.70 1.70 86 1008.9
20260509044843 21 292 0.0 0.0 0.00 1.70 1.70 86 1008.3
20260509044341 21 288 0.0 0.0 0.00 1.70 1.70 85 1008.1
20260509043837 21 293 0.0 0.0 0.00 1.70 1.70 85 1008.0
20260509043333 21 301 0.0 0.0 0.00 1.70 1.70 85 1008.2
20260509042829 21 280 0.0 0.0 0.00 1.70 1.70 85 1007.8
20260509042326 21 312 0.0 0.0 0.00 1.70 1.70 84 1007.7
20260509041822 21 205 1.6 3.2 0.00 1.70 1.70 84 1008.1
20260509041319 21 236 0.0 0.0 0.00 1.70 1.70 84 1008.1
20260509040818 21 239 0.0 0.0 0.00 1.70 1.70 84 1008.1
20260509040315 21 314 0.0 0.0 0.00 1.70 1.70 84 1008.0
20260509035812 22 325 0.0 0.0 0.00 1.70 1.70 84 1007.9
20260509035309 22 131 0.0 0.0 0.00 1.70 1.70 84 1007.8
20260509034805 22 303 0.0 0.0 0.00 1.70 1.70 84 1008.2
20260509034303 22 121 0.0 1.6 0.00 1.70 1.70 83 1008.1
20260509033759 22 41 0.0 0.0 0.00 1.70 1.70 82 1008.6
20260509033257 22 350 0.0 0.0 0.00 1.70 1.70 82 1009.3
20260509032754 22 333 0.0 1.6 0.00 1.70 1.70 82 1009.1
20260509032250 22 337 0.0 0.0 0.00 1.70 1.70 82 1008.9
20260509031748 22 295 0.0 0.0 0.00 1.70 1.70 82 1008.6
20260509031245 22 311 0.0 0.0 0.00 1.70 1.70 82 1008.3
20260509030743 22 302 0.0 0.0 0.00 1.70 1.70 82 1008.5
20260509030241 22 287 0.0 0.0 0.00 1.70 1.70 82 1008.5
20260509025737 22 346 0.0 0.0 0.00 1.70 1.70 82 1008.5
20260509025233 22 312 0.0 0.0 0.00 1.70 1.70 83 1008.2
20260509024728 22 342 0.0 1.6 0.00 1.70 1.70 83 1008.0
20260509024224 22 296 0.0 0.0 0.00 1.70 1.70 83 1008.0
20260509023722 22 319 0.0 0.0 0.00 1.70 1.70 82 1007.9
20260509023219 22 330 0.0 0.0 0.00 1.70 1.70 82 1007.9
20260509022715 22 272 8.0 9.7 0.00 1.70 1.70 82 1007.3
20260509022213 22 280 0.0 0.0 0.00 1.70 1.70 82 1007.2
20260509021710 22 170 1.6 1.6 0.00 1.70 1.70 82 1006.8
20260509021207 22 270 0.0 0.0 0.00 1.70 1.70 81 1006.8
20260509020705 22 230 0.0 0.0 0.00 1.70 1.70 81 1007.0
20260509020202 22 249 0.0 0.0 0.00 1.70 1.70 81 1007.0
20260509015700 22 215 1.6 1.6 0.00 1.70 1.70 81 1007.2
20260509015158 22 233 3.2 8.0 0.00 1.70 1.70 81 1006.7
20260509014654 22 236 0.0 1.6 0.00 1.70 1.70 80 1006.7
20260509014150 22 322 0.0 0.0 0.00 1.70 1.70 80 1006.6
20260509013648 22 182 0.0 0.0 0.00 1.70 1.70 80 1006.6
20260509013143 22 287 0.0 0.0 0.00 1.70 1.70 79 1006.6
20260509012640 22 172 0.0 1.6 0.00 1.70 1.70 79 1006.7
20260509012137 22 289 0.0 0.0 0.00 1.70 1.70 79 1007.0
20260509011635 22 224 0.0 1.6 0.00 1.70 1.70 79 1006.8
20260509011132 22 328 0.0 1.6 0.00 1.70 1.70 78 1006.8
20260509010630 22 275 0.0 1.6 0.00 1.70 1.70 78 1006.8
20260509010126 23 310 0.0 0.0 0.00 1.70 1.70 77 1006.8
20260509005624 23 325 0.0 0.0 0.00 1.70 1.70 77 1006.8
20260509005120 23 303 0.0 0.0 0.00 1.70 1.70 77 1006.5
20260509004616 23 276 0.0 0.0 0.00 1.70 1.70 76 1006.4
20260509004113 23 299 0.0 1.6 0.00 1.70 1.70 76 1006.3
20260509003611 23 174 0.0 0.0 0.00 1.70 1.70 76 1006.3
20260509003108 23 225 1.6 1.6 0.00 1.70 1.70 75 1006.3
20260509002606 23 268 0.0 1.6 0.00 1.70 1.70 75 1006.1
20260509002103 23 213 0.0 1.6 0.00 1.70 1.70 75 1006.2
20260509001600 23 174 3.2 3.2 0.00 1.70 1.70 75 1006.2
20260509001056 23 190 1.6 1.6 0.00 1.70 1.70 74 1006.3
20260509000555 23 304 0.0 1.6 0.00 1.70 1.70 74 1006.2
20260509000050 23 298 0.0 1.6 0.00 1.70 1.70 74 1006.3
20260508235548 23 251 0.0 0.0 0.00 1.70 1.70 74 1006.4
20260508235044 23 217 1.6 1.6 0.00 1.70 1.70 73 1006.5
20260508234542 23 275 0.0 1.6 0.00 1.70 1.70 73 1006.5
20260508234038 23 188 0.0 0.0 0.00 1.70 1.70 73 1006.5
20260508233538 24 135 0.0 1.6 0.00 1.70 1.70 72 1006.5
20260508233035 24 305 0.0 0.0 0.00 1.70 1.70 72 1006.7
20260508232531 25 99 1.6 1.6 0.00 1.70 1.70 71 1006.5
20260508232029 25 339 0.0 0.0 0.00 1.70 1.70 71 1006.7
20260508231526 25 286 0.0 0.0 0.00 1.70 1.70 71 1006.8
20260508231023 25 268 0.0 0.0 0.00 1.70 1.70 72 1006.5
20260508230520 25 225 1.6 1.6 0.00 1.70 1.70 71 1006.6
20260508230017 25 167 1.6 1.6 0.00 1.70 1.70 70 1006.8
20260508225514 25 309 0.0 0.0 0.00 1.70 1.70 70 1006.8
20260508225010 25 290 0.0 0.0 0.00 1.70 1.70 71 1006.8
20260508224508 25 352 0.0 0.0 0.00 1.70 1.70 71 1006.7
20260508224005 25 148 1.6 1.6 0.00 1.70 1.70 70 1006.7
20260508223503 25 225 0.0 0.0 0.00 1.70 1.70 70 1006.7
20260508223000 25 310 0.0 0.0 0.00 1.70 1.70 70 1007.0
20260508222458 25 253 3.2 4.8 0.00 1.70 1.70 69 1006.6
20260508221954 26 319 0.0 1.6 0.00 1.70 1.70 68 1006.6
20260508221450 26 284 0.0 0.0 0.00 1.70 1.70 68 1006.6
20260508220946 26 253 0.0 1.6 0.00 1.70 1.70 67 1006.7
20260508220443 26 332 0.0 1.6 0.00 1.70 1.70 67 1006.7
20260508215939 26 252 0.0 0.0 0.00 1.70 1.70 68 1006.4
20260508215436 26 213 0.0 0.0 0.00 1.70 1.70 66 1006.6
20260508214932 26 270 1.6 1.6 0.00 1.70 1.70 65 1006.7
20260508214431 26 307 0.0 0.0 0.00 1.70 1.70 66 1006.5
20260508213926 26 94 0.0 1.6 0.00 1.70 1.70 66 1006.6
20260508213424 26 216 0.0 1.6 0.00 1.70 1.70 66 1006.4
20260508212919 26 178 3.2 3.2 0.00 1.70 1.70 66 1006.5
20260508212416 26 221 0.0 0.0 0.00 1.70 1.70 65 1006.7
20260508211912 26 262 3.2 4.8 0.00 1.70 1.70 67 1006.6
20260508211408 26 275 0.0 0.0 0.00 1.70 1.70 66 1006.6
20260508210906 26 197 1.6 3.2 0.00 1.70 1.70 66 1007.2
20260508210402 26 189 0.0 1.6 0.00 1.70 1.70 67 1007.3
20260508205858 25 113 1.6 8.0 0.00 1.70 1.70 67 1007.6
20260508205355 25 183 1.6 3.2 0.00 1.70 1.70 67 1007.8
20260508204851 24 297 0.0 1.6 0.00 1.70 1.70 69 1007.9
20260508204348 24 166 0.0 1.6 0.00 1.70 1.70 69 1008.1
20260508203844 25 135 0.0 1.6 0.00 1.70 1.70 69 1008.2
20260508203340 25 228 0.0 0.0 0.00 1.70 1.70 69 1008.4
20260508202836 25 264 0.0 0.0 0.00 1.70 1.70 68 1008.4
20260508202334 25 245 1.6 1.6 0.00 1.70 1.70 68 1008.7
20260508201831 25 151 1.6 1.6 0.00 1.70 1.70 69 1008.6
20260508201328 25 284 0.0 0.0 0.00 1.70 1.70 68 1008.5
20260508200824 25 314 0.0 0.0 0.00 1.70 1.70 68 1008.6
20260508200321 25 240 1.6 3.2 0.00 1.70 1.70 67 1008.8
20260508195817 25 310 1.6 3.2 0.00 1.70 1.70 67 1008.5
20260508195314 25 295 0.0 0.0 0.00 1.70 1.70 67 1008.6
20260508194810 25 252 0.0 0.0 0.00 1.70 1.70 65 1009.0
20260508194307 26 242 0.0 1.6 0.00 1.70 1.70 65 1008.7
20260508193804 25 199 1.6 3.2 0.00 1.70 1.70 66 1008.7
20260508193301 26 247 8.0 14.5 0.00 1.70 1.70 64 1009.0
20260508192757 26 202 0.0 1.6 0.00 1.70 1.70 64 1008.8
20260508192254 26 98 4.8 8.0 0.00 1.70 1.70 62 1008.9
20260508191751 26 315 0.0 0.0 0.00 1.70 1.70 62 1009.0
20260508191249 26 193 3.2 8.0 0.00 1.70 1.70 62 1008.8
20260508190746 26 268 0.0 0.0 0.00 1.70 1.70 62 1008.9
20260508190242 26 196 0.0 1.6 0.00 1.70 1.70 63 1008.9
20260508185738 26 195 1.6 3.2 0.00 1.70 1.70 63 1009.0
20260508185236 25 158 0.0 1.6 0.00 1.70 1.70 63 1009.0
20260508184733 25 264 0.0 0.0 0.00 1.70 1.70 63 1008.9
20260508184230 26 161 0.0 1.6 0.00 1.70 1.70 63 1009.1
20260508183727 25 338 0.0 1.6 0.00 1.70 1.70 62 1009.1
20260508183223 25 290 0.0 0.0 0.00 1.70 1.70 63 1009.2
20260508182719 25 265 0.0 0.0 0.00 1.70 1.70 62 1009.4
20260508182216 25 307 0.0 0.0 0.00 1.70 1.70 64 1009.5
20260508181712 25 305 0.0 1.6 0.00 1.70 1.70 64 1009.3
20260508181209 25 184 0.0 0.0 0.00 1.70 1.70 63 1009.7
20260508180706 25 80 1.6 1.6 0.00 1.70 1.70 63 1009.8
20260508180203 24 173 0.0 0.0 0.00 1.70 1.70 65 1010.0
20260508175659 23 359 0.0 1.6 0.00 1.70 1.70 65 1009.8
20260508175156 23 311 0.0 1.6 0.00 1.70 1.70 66 1010.1
20260508174654 23 322 0.0 0.0 0.00 1.70 1.70 66 1010.2
20260508174150 23 103 3.2 8.0 0.00 1.70 1.70 64 1009.9
20260508173647 23 282 0.0 0.0 0.00 1.70 1.70 67 1010.0
20260508173143 23 228 0.0 1.6 0.00 1.70 1.70 67 1010.3
20260508172640 23 259 0.0 1.6 0.00 1.70 1.70 69 1010.3
20260508172137 22 256 1.6 3.2 0.00 1.70 1.70 69 1010.3
20260508171633 23 280 0.0 0.0 0.00 1.70 1.70 68 1010.6
20260508171130 22 290 1.6 1.6 0.00 1.70 1.70 68 1010.7
20260508170627 23 26 0.0 0.0 0.00 1.70 1.70 68 1010.9
20260508170125 23 268 0.0 0.0 0.00 1.70 1.70 68 1011.1
20260508165622 23 307 0.0 0.0 0.00 1.70 1.70 69 1011.4
20260508165118 22 323 0.0 0.0 0.00 1.70 1.70 68 1011.4
20260508164614 22 229 0.0 1.6 0.00 1.70 1.70 70 1011.2
20260508164112 22 230 0.0 1.6 0.00 1.70 1.70 70 1011.6
20260508163609 22 311 0.0 1.6 0.00 1.70 1.70 70 1011.5
20260508163106 21 301 0.0 0.0 0.00 1.70 1.70 70 1011.6
20260508162602 21 159 3.2 4.8 0.00 1.70 1.70 70 1011.6
20260508162100 21 332 0.0 0.0 0.00 1.70 1.70 72 1012.0
20260508161556 20 289 0.0 0.0 0.00 1.70 1.70 75 1012.0
20260508161054 20 263 1.6 3.2 0.00 1.70 1.70 75 1012.1
20260508160552 20 319 0.0 0.0 0.00 1.70 1.70 77 1011.9
20260508160049 20 331 0.0 1.6 0.00 1.70 1.70 77 1012.3
20260508155546 20 320 0.0 1.6 0.00 1.70 1.70 79 1012.0
20260508155043 19 288 0.0 0.0 0.00 1.70 1.70 81 1012.1
20260508154540 18 298 0.0 0.0 0.00 1.70 1.70 85 1012.1
20260508154037 18 309 0.0 0.0 0.00 1.70 1.70 91 1012.7
20260508153533 17 278 3.2 3.2 0.00 1.70 1.70 92 1012.5
20260508153030 17 307 0.0 0.0 0.00 1.70 1.70 95 1012.2
20260508152527 16 101 1.6 4.8 0.00 1.70 1.70 97 1012.4
20260508152022 16 300 0.0 0.0 0.00 1.70 1.70 97 1012.5
20260508151520 16 309 0.0 0.0 0.00 1.70 1.70 98 1012.3
20260508151016 16 294 0.0 0.0 0.00 1.70 1.70 98 1012.3
20260508150514 16 311 0.0 1.6 0.00 1.70 1.70 98 1012.6
20260508150009 16 264 0.0 0.0 0.00 1.70 1.70 98 1012.6
20260508145506 17 319 0.0 0.0 0.00 1.70 1.70 99 1012.7
20260508145001 17 64 0.0 0.0 0.00 1.70 1.70 99 1012.3
20260508144454 16 164 0.0 0.0 0.00 1.70 1.70 99 1012.4
20260508143951 17 320 0.0 0.0 0.00 1.70 1.70 99 1012.7
20260508143449 16 325 0.0 0.0 0.00 1.70 1.70 99 1012.4
20260508142945 16 290 0.0 0.0 0.00 1.70 1.70 99 1012.6
20260508142442 16 307 0.0 0.0 0.00 1.70 1.70 99 1012.8
20260508141938 16 312 0.0 0.0 0.00 1.70 1.70 99 1012.5
20260508141435 16 326 0.0 0.0 0.00 1.70 1.70 99 1012.5
20260508140933 16 317 1.6 1.6 0.00 1.70 1.70 99 1012.6
20260508140430 16 359 0.0 0.0 0.00 1.70 1.70 99 1012.9
20260508135925 16 331 0.0 0.0 0.00 1.70 1.70 99 1012.9
20260508135422 16 329 0.0 0.0 0.00 1.70 1.70 99 1012.7
20260508134919 16 332 0.0 0.0 0.00 1.70 1.70 99 1012.6
20260508134415 16 324 0.0 0.0 0.00 1.70 1.70 99 1012.6
20260508133912 16 326 0.0 0.0 0.00 1.70 1.70 99 1012.8
20260508133410 16 337 0.0 0.0 0.00 1.70 1.70 99 1012.8
20260508132906 15 321 0.0 0.0 0.00 1.70 1.70 99 1012.5
20260508132404 15 321 0.0 0.0 0.00 1.70 1.70 99 1012.6
20260508131901 15 325 0.0 0.0 0.00 1.70 1.70 99 1012.7
20260508131356 15 306 0.0 0.0 0.00 1.70 1.70 99 1012.7
20260508130853 15 306 0.0 0.0 0.18 1.70 1.70 99 1012.5
20260508130350 15 17 0.0 0.0 0.18 1.70 1.70 99 1012.5
20260508125846 15 351 0.0 0.0 0.13 1.68 1.68 99 1012.6
20260508125342 15 302 0.0 0.0 0.00 1.65 1.65 99 1013.2
20260508124840 15 269 0.0 0.0 0.00 1.65 1.65 99 1013.5
20260508124337 15 353 0.0 0.0 0.00 1.65 1.65 99 1012.8
20260508123836 15 331 0.0 0.0 0.00 1.65 1.65 99 1012.8
20260508123334 15 272 0.0 0.0 0.00 1.65 1.65 99 1013.3
20260508122830 15 311 0.0 0.0 0.00 1.65 1.65 99 1013.1
20260508122327 15 311 0.0 0.0 0.00 1.65 1.65 99 1012.9
20260508121824 15 304 0.0 0.0 0.18 1.65 1.65 99 1013.1
20260508121322 15 304 0.0 0.0 0.18 1.65 1.65 99 1013.0
20260508120819 15 305 0.0 0.0 0.00 1.63 1.63 99 1013.0
20260508120318 15 322 0.0 0.0 0.00 1.63 1.63 99 1013.0
20260508115814 15 243 0.0 0.0 0.00 1.63 1.63 99 1012.7
20260508115312 15 290 0.0 0.0 0.00 1.63 1.63 99 1012.5
20260508114809 15 334 0.0 0.0 0.00 1.63 1.63 99 1013.0
20260508114306 15 51 0.0 0.0 0.00 1.63 1.63 99 1012.8
20260508113802 15 127 0.0 0.0 0.00 1.63 1.63 99 1012.8
20260508113300 15 132 0.0 0.0 0.00 1.63 1.63 99 1012.8
20260508112756 15 132 0.0 0.0 0.00 1.63 1.63 99 1012.5
20260508112253 15 132 0.0 0.0 0.30 1.63 1.63 99 1012.5
20260508111749 15 132 0.0 0.0 1.19 1.63 1.63 99 1012.6
20260508111247 15 123 0.0 1.6 2.29 1.60 1.60 99 1012.3
20260508110744 15 290 0.0 0.0 2.16 1.47 1.47 99 1012.4
20260508110242 15 354 0.0 0.0 0.79 1.17 1.17 99 1012.7
20260508105741 15 313 0.0 0.0 1.63 1.12 1.12 99 1013.1
20260508105238 15 306 0.0 0.0 1.02 1.02 1.02 99 1013.5
20260508104736 15 295 0.0 0.0 0.18 0.84 0.84 99 1013.6
20260508104233 15 332 0.0 0.0 0.00 0.81 0.81 99 1012.6
20260508103730 15 346 0.0 0.0 0.00 0.81 0.81 98 1012.8
20260508103227 15 293 0.0 1.6 0.18 0.81 0.81 98 1013.3
20260508102724 15 307 0.0 0.0 0.61 0.81 0.81 99 1012.8
20260508102222 15 353 0.0 0.0 0.71 0.79 0.79 98 1012.3
20260508101719 15 331 0.0 0.0 0.48 0.71 0.71 98 1012.6
20260508101216 15 269 1.6 3.2 0.18 0.66 0.66 98 1012.7
20260508100714 15 326 0.0 0.0 0.00 0.64 0.64 98 1011.8
20260508100212 15 326 0.0 0.0 0.00 0.64 0.64 98 1011.6
20260508095707 15 302 0.0 0.0 0.00 0.64 0.64 98 1011.6
20260508095206 15 297 0.0 0.0 0.00 0.64 0.64 98 1011.8
20260508094702 15 297 0.0 0.0 0.00 0.64 0.64 98 1011.9
20260508094159 15 297 0.0 0.0 0.00 0.64 0.64 98 1012.1
20260508093656 15 297 0.0 0.0 0.00 0.64 0.64 98 1012.0
20260508093154 15 297 0.0 0.0 0.00 0.64 0.64 98 1011.9
20260508092650 15 297 0.0 0.0 0.00 0.64 0.64 98 1012.1
20260508092149 15 297 0.0 0.0 0.00 0.64 0.64 98 1012.3
20260508091646 15 297 0.0 0.0 0.00 0.64 0.64 98 1012.2
20260508091143 15 296 0.0 0.0 0.00 0.64 0.64 97 1012.3
20260508090641 15 286 0.0 0.0 0.00 0.64 0.64 97 1011.8
20260508090138 15 296 0.0 0.0 0.00 0.64 0.64 97 1012.1
20260508085634 15 297 0.0 0.0 0.00 0.64 0.64 97 1012.5
20260508085131 15 297 0.0 0.0 0.00 0.64 0.64 97 1012.7
20260508084628 15 296 0.0 0.0 0.00 0.64 0.64 97 1012.5
20260508084125 15 296 0.0 0.0 0.00 0.64 0.64 96 1012.7
20260508083622 15 298 1.6 3.2 0.00 0.64 0.64 96 1013.1
20260508083119 15 296 0.0 0.0 0.30 0.64 0.64 96 1012.2
20260508082614 15 112 0.0 1.6 0.30 0.64 0.64 96 1011.8
20260508082112 15 218 0.0 1.6 0.00 0.58 0.58 95 1012.1
20260508081609 15 295 0.0 0.0 0.00 0.58 0.58 95 1013.0
20260508081106 15 302 0.0 0.0 0.13 0.58 0.58 95 1013.0
20260508080603 15 331 0.0 0.0 1.98 0.58 0.58 94 1013.0
20260508080101 15 214 1.6 1.6 2.29 0.56 0.56 92 1013.2
20260508075557 16 335 0.0 0.0 1.19 0.30 0.30 91 1013.4
20260508075055 16 297 0.0 0.0 1.07 0.18 0.18 89 1014.0
20260508074552 17 288 1.6 3.2 0.43 0.08 0.08 85 1014.1
20260508074049 16 296 0.0 0.0 0.00 0.00 0.00 82 1014.0
20260508073546 16 296 0.0 0.0 0.00 0.00 0.00 81 1013.6
20260508073044 16 302 0.0 0.0 0.00 0.00 0.00 81 1013.6
20260508072539 16 302 0.0 0.0 0.00 0.00 0.00 81 1013.4
20260508072036 16 315 0.0 0.0 0.00 0.00 0.00 81 1013.2
20260508071534 16 93 1.6 1.6 0.00 0.00 0.00 81 1013.0
20260508071032 16 319 0.0 0.0 0.00 0.00 0.00 82 1013.6
20260508070530 16 319 0.0 0.0 0.00 0.00 0.00 82 1013.6
20260508070028 16 333 0.0 0.0 0.00 0.00 0.00 82 1013.2
20260508065525 16 333 0.0 0.0 0.00 0.00 0.00 82 1013.4
20260508065023 16 3 0.0 0.0 0.00 0.00 0.00 82 1013.4
20260508064520 16 359 0.0 0.0 0.00 0.00 0.00 82 1013.8
20260508064018 16 6 0.0 0.0 0.00 0.00 0.00 83 1013.8
20260508063515 16 329 0.0 0.0 0.00 0.00 0.00 83 1013.9
20260508063013 16 304 0.0 0.0 0.00 0.00 0.00 83 1014.0
20260508062510 16 318 0.0 0.0 0.00 0.00 0.00 83 1014.2
20260508062007 16 323 0.0 0.0 0.00 0.00 0.00 83 1014.1
20260508061505 16 319 0.0 0.0 0.00 0.00 0.00 83 1014.1
20260508061001 16 319 0.0 0.0 0.00 0.00 0.00 82 1013.8
20260508060458 16 319 0.0 0.0 0.00 0.00 0.00 82 1013.8
20260508055954 16 319 0.0 0.0 0.00 0.00 0.00 82 1013.5
20260508055451 16 319 0.0 0.0 0.00 0.00 0.00 81 1013.6
20260508054948 16 319 0.0 0.0 0.00 0.00 0.00 81 1013.6